#timestamp,LO_Frequency,Hit,StdDev 
1637222415.1,286047000.3,N
1637222416.0,286047000.3,N
1637222435.8,286047000.2,N
1637222455.7,286047000.4,N
1637222475.5,286047000.2,N
1637222495.3,286046999.9,N
1637222515.2,286047000.7,N
1637222535.0,286047000.4,N
1637222535.9,286047000.4,N
1637222555.8,286047002.7,N
1637222575.6,286047002.5,N
1637222595.4,286047001.6,N
1637222615.3,286047002.4,N
1637222635.1,286047000.4,N
1637222655.8,286047002.7,N
1637222675.7,286047000.3,N
1637222695.5,286047001.0,N
1637222715.4,286047001.0,N
1637222735.2,286047000.5,N
1637222755.0,286046999.9,N
1637222755.9,286046999.9,N
1637222775.8,286047002.4,N
1637222795.6,286047000.2,N
1637222815.4,286047002.5,N
1637222835.3,286047002.4,N
1637222855.1,286047002.4,N
1637222875.9,286047001.6,N
1637222895.7,286047001.6,N
1637222915.5,286047002.5,N
1637222935.4,286047002.1,N
1637222955.2,286047002.2,N
1637222975.0,286047002.5,N
1637222975.9,286047002.5,N
1637222995.8,286047002.6,N
1637223015.6,286047002.5,N
1637223035.5,286047000.2,N
1637223055.3,286046999.9,N
1637223075.1,286047000.1,N
1637223095.9,286047002.4,N
1637223115.7,286047001.5,N
1637223135.6,286046999.9,N
1637223155.4,286046999.9,N
1637223175.2,286046998.2,N
1637223195.1,286046998.5,N
1637223196.0,286046998.5,N
1637223215.8,286046998.2,N
1637223235.6,286047001.2,N
1637223255.5,286046998.8,N
1637223275.3,286047001.0,N
1637223295.2,286046998.2,N
1637223315.9,286047000.9,N
1637223335.7,286047001.0,N
1637223355.6,286047001.0,N
1637223375.4,286047002.8,N
1637223395.3,286047002.7,N
1637223445.1,286047002.4,E
1637223455.0,286046998.1,N
1637223455.9,286046998.1,P
1637223475.8,286046996.9,P
1637223495.6,286046996.8,Y
1637223515.5,286047000.3,P
1637223535.3,286047002.0,N
1637223555.1,286047002.7,N
1637223575.9,286047002.6,N
1637223595.7,286047004.4,N
1637223615.6,286047001.9,N
1637223635.4,286047001.7,N
1637223655.2,286047002.6,N
1637223675.1,286047002.3,N
1637223676.0,286047002.3,N
1637223695.8,286047002.3,N
1637223715.7,286047000.9,N
1637223735.5,286047002.8,N
1637223755.3,286047000.5,N
1637223775.2,286047002.2,N
1637223795.9,286047000.6,N
1637223815.7,286047000.8,N
1637223835.6,286047001.2,N
1637223855.4,286047000.7,N
1637223875.3,286046998.3,N
1637223895.1,286047001.2,N
1637223896.0,286047001.2,N
1637223915.8,286046998.2,N
1637223935.7,286046998.1,N
1637223955.5,286046998.2,N
1637223975.3,286047000.6,N
1637223995.2,286046998.2,N
1637224015.0,286047000.7,N
1637224015.9,286047000.7,N
1637224035.8,286047000.8,N
1637224055.6,286047000.8,N
1637224075.4,286047002.1,N
1637224095.3,286047000.1,N
1637224115.1,286047002.7,N
1637224135.8,286047000.5,N
1637224155.7,286047000.9,N
1637224175.5,286047001.2,N
1637224195.4,286046998.5,N
1637224215.2,286047000.1,N
1637224235.0,286047000.8,N
1637224235.9,286047000.8,N
1637224255.8,286047000.6,N
1637224275.6,286046998.4,N
1637224295.5,286047000.6,N
1637224315.3,286046998.8,N
1637224335.1,286046998.5,N
1637224355.9,286046998.7,N
1637224375.7,286047001.1,N
1637224395.5,286046999.5,N
1637224415.4,286046998.2,N
1637224435.2,286046999.2,N
1637224455.1,286046996.9,N
1637224456.0,286046996.9,N
1637224475.8,286046998.2,N
1637224495.6,286046997.8,N
1637224515.5,286046997.9,N
1637224535.3,286046995.3,Y
1637224555.2,286046997.9,P
1637224575.9,286046994.9,P
1637224595.7,286046995.2,N
1637224615.6,286046994.9,N
1637224635.4,286046994.9,N
1637224655.2,286046995.9,N
1637224675.1,286046996.3,N
1637224676.0,286046996.3,N
1637224695.8,286046995.1,Y
1637224715.7,286046999.4,P
1637224735.5,286047001.1,N
1637224755.3,286047000.5,N
1637224775.2,286047001.1,N
1637224795.0,286047000.2,N
1637224795.9,286047000.2,N
1637224815.8,286047002.7,N
1637224835.6,286047000.6,N
1637224855.4,286047000.5,N
1637224875.3,286047000.8,N
1637224895.1,286047000.4,N
1637224915.8,286047000.4,N
1637224935.7,286046998.2,N
1637224955.5,286047000.8,N
1637224975.4,286047000.8,N
1637224995.2,286047000.8,N
1637225015.0,286047000.0,N
1637225015.9,286047000.0,N
1637225035.8,286046998.9,N
1637225055.6,286046998.3,N
1637225075.5,286046998.5,N
1637225095.3,286046998.6,N
1637225115.1,286046998.2,N
1637225135.9,286046998.6,N
1637225155.7,286046998.1,N
1637225175.5,286046998.1,N
1637225195.4,286047000.7,N
1637225215.2,286046998.5,N
1637225235.1,286046998.4,N
1637225236.0,286046998.4,N
1637225255.8,286046998.5,N
1637225275.6,286046998.5,N
1637225295.5,286046998.7,N
1637225315.3,286046999.5,N
1637225335.2,286046999.3,N
1637225355.9,286046996.6,N
1637225375.7,286046999.4,N
1637225395.6,286046999.1,N
1637225415.4,286046996.5,Y
1637225435.2,286047000.8,P
1637225455.1,286047000.7,N
1637225456.0,286047000.7,N
1637225475.8,286047000.0,N
1637225495.7,286047000.6,N
1637225515.5,286047000.3,N
1637225535.3,286047000.3,N
1637225555.2,286047000.6,N
1637225575.0,286046998.1,Y
1637225575.9,286046998.1,P
1637225595.8,286047001.0,N
1637225615.6,286046998.3,N
1637225635.4,286046998.2,N
1637225655.3,286047000.3,N
1637225675.1,286047001.0,N
1637225695.8,286047000.2,N
1637225715.7,286047000.7,N
1637225735.5,286047000.6,N
1637225755.4,286047001.0,N
1637225775.2,286047000.8,N
1637225795.0,286047001.2,N
1637225795.9,286047001.2,N
1637225815.8,286046998.2,N
1637225835.6,286046998.1,N
1637225855.4,286047000.7,N
1637225875.3,286047000.3,N
1637225895.1,286047001.1,N
1637225915.9,286046998.6,N
1637225935.7,286047000.4,N
1637225985.6,286046998.5,E
1637225995.5,286047000.9,N
